Date_and_time,latitude,longitude,wind_speed,RelWindDirFrom,WindDirFrom,air_pressure,air_temperature,relative_humidity,Temp,platform_speed_wrt_ground,air_pressure_at_mean_sea_level,platform_orientation
2018-11-17 23:30,50.63043,-96.98077,14.4,19.9,212,995.44,-11.8,68,0.82,0.0,1024.69,165.5
2018-11-17 23:40,50.6304333333333,-96.9807733333333,14.1,18.3,212,995.26,-12.0,68,0.82,0.0,1024.52,165.5
2018-11-17 23:50,50.630435,-96.980775,13.2,17.1,211,994.97,-12.1,69,0.82,0.0,1024.23,165.5
2018-11-18 00:00,50.6304366666667,-96.9807766666667,13.6,19.8,210,994.78,-12.1,70,0.82,0.0,1024.05,20.1
2018-11-18 00:00,50.6304366666667,-96.9807766666667,15.5,15.7,203,994.65,-12.2,70,0.82,0.0,1023.93,38.0
2018-11-18 00:10,50.6304433333333,-96.9807916666667,13.5,17.7,213,994.64,-12.1,70,0.81,0.0,1023.93,38.0
2018-11-18 00:20,50.6304366666667,-96.9807883333333,13.7,18.5,214,994.63,-12.1,70,0.81,0.0,1023.93,38.0
2018-11-18 00:30,50.6304383333333,-96.9807933333333,12.9,17.9,215,994.55,-12.0,71,0.82,0.0,1023.85,38.0
2018-11-18 00:40,50.6304366666667,-96.980785,12.5,17.9,218,994.43,-12.0,71,0.83,0.0,1023.75,38.0
2018-11-18 00:50,50.6304366666667,-96.98078,12.7,17.1,217,994.20,-12.0,72,0.83,0.0,1023.52,38.0
2018-11-18 01:00,50.6304383333333,-96.9807816666667,13.2,19.0,216,993.93,-11.9,72,0.83,0.0,1023.24,328.9
2018-11-18 01:10,50.63044,-96.980765,12.4,17.9,221,993.89,-11.8,72,0.82,0.0,1023.21,328.9
2018-11-18 01:20,50.63044,-96.9807716666667,12.7,17.7,220,993.71,-11.7,72,0.82,0.0,1023.02,328.9
2018-11-18 01:30,50.6304366666667,-96.98077,12.9,16.8,219,993.54,-11.7,72,0.83,0.0,1022.86,328.9
2018-11-18 01:40,50.6304366666667,-96.9807716666667,12.2,16.0,218,993.44,-11.8,73,0.83,0.0,1022.76,328.9
2018-11-18 01:50,50.6304183333333,-96.9807566666667,12.2,17.1,221,993.39,-11.7,73,0.82,0.0,1022.71,328.9
2018-11-18 02:00,50.63042,-96.98076,12.6,17.5,225,993.37,-11.6,72,0.82,0.0,1022.67,147.5
2018-11-18 02:10,50.6304366666667,-96.9807666666667,13.5,18.0,228,993.28,-11.5,72,0.83,0.0,1022.58,147.5
2018-11-18 02:20,50.63044,-96.9807733333333,12.5,17.4,229,993.29,-11.5,72,0.83,0.0,1022.58,147.5
2018-11-18 02:30,50.6304416666667,-96.9807833333333,11.7,15.7,229,993.21,-11.6,73,0.83,0.0,1022.51,147.5
2018-11-18 02:40,50.6304366666667,-96.9807833333333,10.5,14.8,230,993.20,-11.7,73,0.84,0.0,1022.50,147.5
2018-11-18 02:50,50.6304316666667,-96.9807783333333,10.0,13.7,229,993.14,-11.7,74,0.85,0.0,1022.43,147.5
2018-11-18 03:00,50.6304333333333,-96.9807766666667,10.2,15.5,226,992.95,-11.8,74,0.85,0.0,1022.24,142.0
2018-11-18 03:10,50.630435,-96.9807783333333,8.7,14.3,226,992.84,-11.8,74,0.85,0.0,1022.12,142.0
2018-11-18 03:20,50.630435,-96.9807783333333,8.7,12.9,229,992.85,-11.8,74,0.84,0.0,1022.13,142.0
2018-11-18 03:30,50.6304366666667,-96.9807783333333,8.9,15.6,230,992.78,-11.7,74,0.85,0.0,1022.05,142.0
2018-11-18 03:40,50.6304366666667,-96.9807816666667,10.0,13.7,231,992.69,-11.5,73,0.86,0.0,1021.95,142.0
2018-11-18 03:50,50.6304383333333,-96.98078,9.6,13.5,230,992.57,-11.4,73,0.86,0.0,1021.81,142.0
2018-11-18 04:00,50.63044,-96.9807666666667,9.4,14.1,237,992.52,-11.2,73,0.87,0.0,1021.74,90.0
2018-11-18 04:10,50.63044,-96.9807716666667,9.9,13.7,241,992.41,-11.1,72,0.87,0.0,1021.62,90.0
2018-11-18 04:20,50.63044,-96.980775,9.5,12.5,246,992.34,-11.0,71,0.86,0.0,1021.55,90.0
2018-11-18 04:30,50.63044,-96.9807766666667,8.9,13.8,246,992.25,-10.8,70,0.87,0.0,1021.46,90.0
2018-11-18 04:40,50.63044,-96.9807733333333,8.6,13.6,244,992.15,-10.8,70,0.87,0.0,1021.35,90.0
2018-11-18 04:50,50.63044,-96.980775,8.1,12.0,250,992.04,-10.8,70,0.87,0.0,1021.25,90.0
2018-11-18 05:00,50.6304383333333,-96.980775,7.8,11.9,249,991.97,-10.7,70,0.86,0.0,1021.17,345.5
2018-11-18 05:10,50.6304383333333,-96.9807733333333,7.3,10.9,247,991.87,-10.7,70,0.85,0.0,1021.07,345.5
2018-11-18 05:20,50.6304366666667,-96.9807733333333,7.9,11.1,248,991.83,-10.6,70,0.85,0.0,1021.01,345.5
2018-11-18 05:30,50.6304366666667,-96.9807733333333,7.4,11.7,251,991.76,-10.6,70,0.85,0.0,1020.93,345.5
2018-11-18 05:40,50.6304366666667,-96.9807766666667,7.6,12.2,252,991.67,-10.5,70,0.86,0.0,1020.82,345.5
2018-11-18 05:50,50.6304366666667,-96.9807766666667,7.3,11.5,257,991.66,-10.5,70,0.86,0.0,1020.81,345.5
2018-11-18 06:00,50.6304366666667,-96.9807766666667,7.3,11.3,259,991.64,-10.4,70,0.85,0.0,1020.77,38.0
2018-11-18 06:10,50.6304366666667,-96.980775,7.2,10.9,256,991.55,-10.4,71,0.85,0.0,1020.67,38.0
2018-11-18 06:20,50.6304366666667,-96.9807766666667,5.9,9.2,260,991.60,-10.3,71,0.85,0.0,1020.71,38.0
2018-11-18 06:30,50.63046,-96.9807916666667,6.0,9.7,260,991.58,-10.3,71,0.85,0.0,1020.69,38.0
2018-11-18 06:40,50.6304433333333,-96.980755,6.1,9.6,261,991.52,-10.3,71,0.84,0.0,1020.62,38.0
2018-11-18 06:50,50.630435,-96.98076,6.0,10.4,257,991.48,-10.3,71,0.85,0.0,1020.58,38.0
2018-11-18 07:00,50.6304333333333,-96.9807616666667,5.5,8.2,267,991.46,-10.2,72,0.85,0.0,1020.55,165.5
2018-11-18 07:10,50.6304383333333,-96.9807683333333,5.1,7.7,268,991.43,-10.2,72,0.87,0.0,1020.51,165.5
2018-11-18 07:20,50.6304366666667,-96.980775,5.7,8.5,267,991.40,-10.2,72,0.86,0.0,1020.48,165.5
2018-11-18 07:30,50.6304416666667,-96.9807716666667,6.1,9.3,273,991.36,-10.2,72,0.87,0.0,1020.44,165.5
2018-11-18 07:40,50.6304566666667,-96.9808016666667,6.0,9.8,276,991.31,-10.2,73,0.88,0.0,1020.39,165.5
2018-11-18 07:50,50.6304516666667,-96.9807633333333,5.9,9.7,277,991.23,-10.2,73,0.88,0.0,1020.30,165.5
2018-11-18 08:00,50.6304466666667,-96.9807616666667,5.8,9.0,279,991.18,-10.1,74,0.89,0.0,1020.25,60.8
2018-11-18 08:10,50.6304483333333,-96.980765,4.9,8.1,283,991.10,-10.1,74,0.89,0.0,1020.16,60.8
2018-11-18 08:20,50.63045,-96.9807683333333,4.7,7.8,286,991.08,-10.1,74,0.89,0.0,1020.13,60.8
2018-11-18 08:30,50.63045,-96.98077,5.5,7.5,290,990.95,-10.1,74,0.90,0.0,1020.00,60.8
2018-11-18 08:40,50.6304483333333,-96.9807733333333,4.5,6.2,285,990.95,-10.1,75,0.91,0.0,1020.00,60.8
2018-11-18 08:50,50.6304116666667,-96.9807816666667,4.2,6.0,284,991.01,-10.1,76,0.92,0.0,1020.06,60.8
2018-11-18 09:00,50.6304383333333,-96.9807766666667,4.1,6.1,282,990.94,-10.2,76,0.93,0.0,1019.99,360.0
2018-11-18 09:10,50.6304316666667,-96.980765,4.0,6.4,282,990.90,-10.2,76,0.93,0.0,1019.94,360.0
2018-11-18 09:20,50.6304316666667,-96.980765,4.0,5.6,285,990.83,-10.2,77,0.93,0.0,1019.88,360.0
2018-11-18 09:30,50.6304266666667,-96.9807616666667,3.9,5.6,290,990.85,-10.2,77,0.93,0.0,1019.90,360.0
2018-11-18 09:40,50.63045,-96.98081,3.9,5.9,283,990.87,-10.2,77,0.93,0.0,1019.92,360.0
2018-11-18 09:50,50.6304383333333,-96.9807766666667,3.7,5.9,286,990.82,-10.2,77,0.92,0.0,1019.86,360.0
2018-11-18 10:00,50.6304416666667,-96.980775,3.6,5.1,286,990.76,-10.2,78,0.92,0.0,1019.80,311.7
2018-11-18 10:10,50.6304716666667,-96.9808,3.1,4.7,293,990.81,-10.2,78,0.92,0.0,1019.85,311.7
2018-11-18 10:20,50.6304466666667,-96.9807783333333,3.3,5.0,290,990.90,-10.2,79,0.92,0.0,1019.95,311.7
2018-11-18 10:30,50.6304633333333,-96.980795,3.4,5.2,300,990.92,-10.2,79,0.91,0.0,1019.96,311.7
2018-11-18 10:40,50.630425,-96.9807833333333,3.6,5.0,308,990.92,-10.2,80,0.91,0.0,1019.96,311.7
2018-11-18 10:50,50.6304266666667,-96.9807766666667,4.5,8.4,320,990.88,-10.2,80,0.91,0.0,1019.93,311.7
2018-11-18 11:00,50.63043,-96.980775,5.5,8.2,324,990.81,-10.2,80,0.90,0.0,1019.85,194.5
2018-11-18 11:10,50.6304316666667,-96.9807733333333,6.2,8.0,332,990.72,-10.3,81,0.90,0.0,1019.77,194.5
2018-11-18 11:20,50.6304316666667,-96.9807716666667,5.6,8.6,334,990.79,-10.3,81,0.90,0.0,1019.84,194.5
2018-11-18 11:30,50.6304416666667,-96.980775,6.1,8.8,332,990.87,-10.4,79,0.90,0.0,1019.92,194.5
2018-11-18 11:40,50.630445,-96.98078,6.1,9.5,332,990.92,-10.4,79,0.90,0.0,1019.98,194.5
2018-11-18 11:50,50.6304433333333,-96.9807833333333,6.2,9.2,334,990.89,-10.5,79,0.90,0.0,1019.96,194.5
2018-11-18 12:00,50.63045,-96.9807883333333,5.9,8.8,333,990.88,-10.6,80,0.91,0.0,1019.94,310.6
2018-11-18 12:10,50.630445,-96.9807816666667,5.8,8.6,329,990.90,-10.7,80,0.93,0.0,1019.97,310.6
2018-11-18 12:20,50.630445,-96.9807783333333,5.5,8.1,326,990.89,-10.7,81,0.94,0.0,1019.97,310.6
2018-11-18 12:30,50.630445,-96.98078,5.9,9.9,327,990.89,-10.8,81,0.95,0.0,1019.98,310.6
2018-11-18 12:40,50.630445,-96.9807783333333,6.4,8.7,329,990.91,-10.9,83,0.94,0.0,1019.99,310.6
2018-11-18 12:50,50.630445,-96.9807783333333,6.6,9.6,332,990.94,-11.0,82,0.94,0.0,1020.03,310.6
2018-11-18 13:00,50.630445,-96.9807766666667,6.9,9.4,331,990.92,-11.0,80,0.94,0.0,1020.01,0.0
2018-11-18 13:10,50.630465,-96.980785,6.6,9.2,328,990.99,-11.0,77,0.94,0.0,1020.09,0.0
2018-11-18 13:20,50.63045,-96.98078,6.2,8.5,335,991.09,-10.9,76,0.94,0.0,1020.20,0.0
2018-11-18 13:30,50.6304433333333,-96.9807716666667,6.8,10.3,336,991.15,-11.0,78,0.94,0.0,1020.26,0.0
2018-11-18 13:40,50.6304416666667,-96.9807683333333,7.5,10.1,339,991.16,-11.2,82,0.94,0.0,1020.29,0.0
2018-11-18 13:50,50.6304366666667,-96.98077,6.6,10.4,331,991.22,-11.2,81,0.94,0.0,1020.35,0.0
2018-11-18 14:00,50.6304316666667,-96.9808133333333,6.5,8.9,326,991.30,-11.3,78,0.94,0.0,1020.45,281.8
2018-11-18 14:10,50.630435,-96.9807783333333,7.2,10.1,329,991.33,-11.4,76,0.94,0.0,1020.48,281.8
2018-11-18 14:20,50.63044,-96.9807766666667,7.3,9.9,331,991.44,-11.3,73,0.94,0.0,1020.60,281.8
2018-11-18 14:30,50.6304383333333,-96.9807783333333,7.1,9.8,327,991.50,-11.4,71,0.95,0.0,1020.67,281.8
2018-11-18 14:40,50.6304416666667,-96.9807783333333,6.8,9.6,325,991.59,-11.4,70,0.96,0.0,1020.77,281.8
2018-11-18 14:50,50.63045,-96.9807716666667,6.5,9.2,325,991.63,-11.3,70,0.97,0.0,1020.81,281.8
2018-11-18 15:00,50.6304466666667,-96.9807816666667,6.3,8.6,336,991.61,-11.2,71,0.97,0.0,1020.77,167.4
2018-11-18 15:10,50.6304383333333,-96.9807766666667,7.0,9.5,354,991.60,-10.9,74,0.97,0.0,1020.75,167.4
2018-11-18 15:20,50.6304416666667,-96.9807766666667,10.1,16.4,15,991.59,-10.4,75,0.97,0.0,1020.71,167.4
2018-11-18 15:30,50.63044,-96.9807733333333,10.1,13.4,11,991.64,-10.3,74,0.97,0.0,1020.77,167.4
2018-11-18 15:40,50.63044,-96.9807716666667,12.2,16.4,23,991.64,-10.4,74,0.97,0.0,1020.78,167.4
2018-11-18 15:50,50.6304383333333,-96.9807766666667,13.9,17.4,33,991.71,-10.7,75,0.96,0.0,1020.87,167.4
2018-11-18 16:00,50.630445,-96.9807733333333,13.3,17.1,30,991.81,-10.9,73,0.96,0.0,1020.99,0.0
2018-11-18 16:10,50.630445,-96.9807683333333,13.4,15.8,27,991.90,-10.9,73,0.96,0.0,1021.08,0.0
2018-11-18 16:20,50.6304483333333,-96.9807683333333,13.6,16.3,30,992.00,-11.0,73,0.96,0.0,1021.19,0.0
2018-11-18 16:30,50.6304483333333,-96.9807683333333,13.2,15.2,24,992.12,-11.1,72,0.96,0.0,1021.31,0.0
2018-11-18 16:40,50.6304466666667,-96.9807666666667,12.7,18.8,17,992.16,-11.1,71,0.95,0.0,1021.35,0.0
2018-11-18 16:50,50.630445,-96.9807666666667,12.1,16.9,18,992.21,-11.0,72,0.96,0.0,1021.40,0.0
2018-11-18 17:00,50.630445,-96.9807666666667,14.7,19.3,22,992.14,-11.1,72,0.96,0.0,1021.31,71.1
2018-11-18 17:10,50.6304333333333,-96.980775,15.4,19.9,22,992.13,-11.3,72,0.96,0.0,1021.29,71.1
2018-11-18 17:20,50.63044,-96.9807716666667,13.9,17.6,21,992.22,-11.4,70,0.96,0.0,1021.39,71.1
2018-11-18 17:30,50.6304333333333,-96.9807566666667,13.9,16.6,20,992.26,-11.5,70,0.96,0.0,1021.43,71.1
2018-11-18 17:40,50.63044,-96.98077,14.9,17.7,15,992.19,-11.5,69,0.96,0.0,1021.38,71.1
2018-11-18 17:50,50.6304416666667,-96.9807716666667,14.4,18.0,11,992.28,-11.6,68,0.96,0.0,1021.48,71.1
2018-11-18 18:00,50.63044,-96.98077,15.4,19.0,18,992.28,-11.7,70,0.96,0.0,1021.50,111.5
2018-11-18 18:10,50.6304383333333,-96.98077,16.4,19.3,15,992.26,-11.8,72,0.96,0.0,1021.48,111.5
2018-11-18 18:20,50.63044,-96.98077,16.0,19.8,9,992.32,-11.9,71,0.96,0.0,1021.55,111.5
2018-11-18 18:30,50.63044,-96.98077,16.1,19.3,11,992.27,-12.0,70,0.95,0.0,1021.51,111.5
2018-11-18 18:40,50.6304416666667,-96.9807716666667,16.3,19.7,12,992.27,-12.1,71,0.95,0.0,1021.51,111.5
2018-11-18 18:50,50.6304416666667,-96.9807733333333,15.7,19.5,10,992.38,-12.2,70,0.95,0.0,1021.63,111.5
2018-11-18 19:00,50.6304433333333,-96.9807733333333,14.6,18.9,7,992.49,-12.2,69,0.95,0.0,1021.75,0.0
2018-11-18 19:10,50.6304433333333,-96.9807733333333,13.5,17.6,7,992.54,-12.2,70,0.95,0.0,1021.81,0.0
2018-11-18 19:20,50.630455,-96.9807733333333,14.6,18.3,4,992.49,-12.2,70,0.95,0.0,1021.77,0.0
2018-11-18 19:30,50.630455,-96.9807716666667,12.2,15.9,350,992.59,-12.3,68,1.12,0.0,1021.88,0.0
2018-11-18 19:40,50.6304533333333,-96.9807716666667,11.7,15.5,359,992.60,-12.3,70,0.94,0.0,1021.90,0.0
2018-11-18 19:50,50.6304516666667,-96.9807683333333,12.7,15.2,357,992.62,-12.3,70,0.94,0.0,1021.92,0.0
2018-11-18 20:00,50.6304516666667,-96.9807683333333,13.0,16.1,0,992.60,-12.4,70,0.94,0.0,1021.91,360.0
2018-11-18 20:10,50.6304483333333,-96.9807633333333,13.0,17.6,358,992.60,-12.4,70,0.93,0.0,1021.91,360.0
2018-11-18 20:20,50.630445,-96.9807733333333,12.2,17.2,1,992.55,-12.2,69,0.93,0.0,1021.87,360.0
2018-11-18 20:30,50.6304433333333,-96.9807683333333,11.0,14.1,351,992.61,-12.1,68,0.93,0.0,1021.92,360.0
2018-11-18 20:40,50.6304483333333,-96.9807666666667,11.2,14.6,5,992.70,-12.4,70,0.93,0.0,1022.03,360.0
2018-11-18 20:50,50.6304466666667,-96.9807683333333,12.0,15.3,4,992.83,-12.5,70,0.93,0.0,1022.17,360.0
2018-11-18 21:00,50.6304466666667,-96.9807683333333,10.5,14.0,360,992.90,-12.5,69,0.92,0.0,1022.25,38.0
2018-11-18 21:10,50.630445,-96.9807683333333,9.7,12.8,357,992.88,-12.4,70,0.91,0.0,1022.23,38.0
2018-11-18 21:20,50.630445,-96.98077,10.3,14.3,360,992.86,-12.2,71,0.90,0.0,1022.20,38.0
2018-11-18 21:30,50.6304383333333,-96.98078,11.5,14.0,2,992.88,-12.1,71,0.90,0.0,1022.21,38.0
2018-11-18 21:40,50.6304366666667,-96.980775,12.1,15.2,6,992.80,-12.1,72,0.90,0.0,1022.12,38.0
2018-11-18 21:50,50.63044,-96.9807733333333,13.9,17.9,10,992.73,-12.1,72,0.89,0.0,1022.06,38.0
2018-11-18 22:00,50.63044,-96.9807716666667,13.2,16.2,1,992.91,-12.2,71,0.89,0.0,1022.26,90.0
2018-11-18 22:10,50.6304416666667,-96.9807716666667,13.3,16.9,2,993.00,-12.3,70,0.88,0.0,1022.34,90.0
2018-11-18 22:20,50.6304416666667,-96.9807716666667,13.1,18.2,3,993.13,-12.4,70,0.87,0.0,1022.47,90.0
2018-11-18 22:30,50.6304416666667,-96.9807716666667,13.3,16.7,4,993.21,-12.4,70,0.87,0.0,1022.57,90.0
2018-11-18 22:40,50.6304416666667,-96.9807716666667,13.5,17.0,4,993.30,-12.4,69,0.88,0.0,1022.66,90.0
2018-11-18 22:50,50.6304416666667,-96.9807716666667,13.5,17.6,5,993.47,-12.4,70,0.89,0.0,1022.84,90.0
2018-11-18 23:00,50.6304283333333,-96.9807916666667,13.7,17.0,5,993.54,-12.4,69,0.88,0.0,1022.91,204.3
2018-11-18 23:10,50.6304483333333,-96.98077,14.0,17.2,3,993.62,-12.3,70,0.88,0.0,1022.99,204.3
2018-11-18 23:20,50.630445,-96.9807633333333,14.9,17.4,4,993.69,-12.4,69,0.89,0.0,1023.05,204.3
2018-11-18 23:30,50.630445,-96.9807666666667,13.9,16.8,5,993.93,-12.3,70,0.88,0.0,1023.30,204.3
2018-11-18 23:40,50.630445,-96.9807666666667,7.3,14.1,331,994.30,-13.1,68,0.88,0.0,1023.72,204.3
